Flag for Germany Weather past 2 weeks in Bühl, Baden-Württemberg, Germany

Now
91 °F

Sunny.


Feels Like: 90 °F
Forecast: 66 / 94 °F
Wind: 9 mph from North

Location: Karlsruhe - Baden Wurttemberg

Current Time: Jul 1, 2015 at 6:09:00 PM

Latest Report: Jul 1, 2015 at 5:20 PM


Visibility: 10 mi

Pressure: 30.01 "Hg

Humidity: 32%

Dew point: 57 °F

Location of BühlLocation

Historic Weather in Bühl — Graph

°F

Bühl temperature yesterday

Maximum temperature yesterday: 84 °F (at 2:50 PM)
Minimum temperature yesterday: 61 °F (at 4:50 AM)
Average temperature yesterday: 75 °F

Past Weeks' High & Low Weather Summary

 TemperatureHumidityPressure
High91 °F (Jul 1, 3:20 PM)94% (Jun 18, 11:20 AM)30.24 "Hg (Jun 18, 11:20 AM)
Low48 °F (Jun 23, 6:20 AM)23% (Jun 26, 3:20 PM)29.74 "Hg (Jun 22, 7:50 PM)
Average65 °F63%30.09 "Hg
* Reported Jun 16 4:20 PM — Jul 1 4:50 PM, Bühl, Weather by CustomWeather, © 2015

Note: Actual official high and low records may vary slightly from our data, if they occured in-between our weather recording intervals... More about our weather records

Advertising

Bühl weather history for previous 24 hours

 ConditionsComfort  
Time TempWeatherWind HumidityBarometerVisibility
4:50 PM
Wed, Jul 1
91 °FSunny.8 mph32%30.01 "Hg10 mi
4:20 PM91 °FSunny.9 mph28%30.04 "Hg10 mi
3:50 PM91 °FSunny.10 mph32%30.04 "Hg10 mi
3:20 PM91 °FSunny.8 mph28%30.04 "Hg10 mi
2:50 PM90 °FPassing clouds.6 mph33%30.04 "HgN/A
2:20 PM90 °FPassing clouds.5 mph33%30.04 "HgN/A
1:50 PM88 °FPassing clouds.5 mph38%30.07 "HgN/A
1:20 PM86 °FPassing clouds.6 mph40%30.07 "HgN/A
12:50 PM84 °FPassing clouds.6 mph43%30.07 "HgN/A
12:20 PM82 °FPassing clouds.6 mph42%30.07 "HgN/A
11:50 AM81 °FSunny.5 mph45%30.07 "Hg6 mi
11:20 AM79 °FPassing clouds.5 mph48%30.09 "HgN/A
10:50 AM77 °FPassing clouds.5 mph51%30.09 "HgN/A
10:20 AM75 °FPassing clouds.6 mph50%30.09 "HgN/A
9:50 AM73 °FPassing clouds.6 mph57%30.09 "HgN/A
9:20 AM72 °FPassing clouds.5 mph57%30.09 "HgN/A
8:50 AM70 °FPassing clouds.5 mph60%30.09 "HgN/A
8:20 AM68 °FSunny.3 mph60%30.09 "Hg10 mi
7:50 AM68 °FSunny.2 mph60%30.09 "Hg10 mi
7:20 AM64 °FSunny.3 mph68%30.07 "Hg10 mi
6:50 AM64 °FSunny.3 mph68%30.07 "Hg10 mi
6:20 AM63 °FClear.5 mph73%30.07 "Hg10 mi
5:50 AM63 °FClear.3 mph73%30.07 "Hg10 mi
5:20 AM63 °FClear.3 mph73%30.07 "Hg10 mi
4:50 AM63 °FClear.3 mph73%30.07 "Hg10 mi
11:50 PM
Tue, Jun 30
68 °FClear.8 mph56%30.07 "Hg10 mi
11:20 PM70 °FClear.6 mph53%30.07 "Hg10 mi
10:50 PM73 °FClear.7 mph44%30.07 "Hg10 mi
10:20 PM73 °FSunny.8 mph44%30.07 "Hg10 mi
9:50 PM73 °FSunny.8 mph44%30.07 "Hg10 mi
9:20 PM75 °FSunny.8 mph41%30.04 "Hg10 mi
8:50 PM79 °FSunny.9 mph34%30.04 "Hg10 mi
8:20 PM82 °FSunny.10 mph30%30.04 "Hg10 mi
7:50 PM82 °FSunny.10 mph32%30.04 "Hg10 mi
6:50 PM84 °FSunny.9 mph35%30.04 "Hg10 mi
6:20 PM84 °FSunny.10 mph33%30.07 "Hg10 mi
Weather by CustomWeather, © 2015

See weather overviewHow to use our weather pages